Notices

What's New in latest Release from April 7th, 2021:

- Updated Glossary, including Speed of Maximum Gust, and Total Hourly Precipitation

- Updated national and regional climate services offices contacts and prices information

- Addition of station inventory lists for 1981-2010, 1971-2000, and 1961-1990 Normals.

If you haven't already, please take our survey and provide feedback about our website: https://eccc.sondage-survey.ca/f/LanguageSelection.aspx?s=442ca660-fcf1-47c0-95a9-59707d6fd709

Hourly Data Report for September 27, 2019

TORONTO CITY
ONTARIO
Current Station Operator: ECCC - MSC

43°40'00.000" N
79°24'00.000" W
112.50 m
6158355
71508
XTO

Download Data

Hourly Data (September 2019)
Hourly Data Report for September 27, 2019
TIME
LST
Temp Definition
°C
Dew Point Definition
°C
Rel Hum Definition
%
Precip. Amount Definition
mm

Wind Dir Definition
10's deg

Wind Spd Definition
km/h
Visibility Definition
km
Stn Press Definition
kPa
Hmdx Definition


Wind Chill Definition


Weather Definition


00:00 12.6 7.1 69 0.0       100.18     LegendNANA
01:00 12.2 6.9 70 0.0       100.17     LegendNANA
02:00 11.6 7.2 74 0.0       100.14     LegendNANA
03:00 11.6 7.1 74 0.0       100.15     LegendNANA
04:00 11.9 7.3 74 0.0       100.22     LegendNANA
05:00 11.0 7.1 77 0.0       100.27     LegendNANA
06:00 11.3 7.0 75 0.0       100.30     LegendNANA
07:00 12.9 6.8 66 0.0       100.35     LegendNANA
08:00 14.6 6.9 60 0.0       100.36     LegendNANA
09:00 16.1 9.3 64 0.0       100.35     LegendNANA
10:00 17.7 10.9 64 0.0       100.34     LegendNANA
11:00 18.7 11.1 62 0.0       100.31     LegendNANA
12:00 20.2 11.1 56 0.0       100.22     LegendNANA
13:00 21.5 9.5 46 0.0       100.12     LegendNANA
14:00 20.9 8.8 46 0.0       100.02     LegendNANA
15:00 21.6 8.5 43 0.0       99.96     LegendNANA
16:00 21.3 7.8 42 0.0       99.87     LegendNANA
17:00 21.1 8.2 43 0.0       99.87     LegendNANA
18:00 21.3 8.3 43 0.0       99.81     LegendNANA
19:00 21.3 8.4 44 0.0       99.89     LegendNANA
20:00 20.9 9.5 48 0.0       99.77     LegendNANA
21:00 20.9 10.0 50 0.0       99.79     LegendNANA
22:00 20.4 11.4 56 0.0       99.74     LegendNANA
23:00 19.4 12.1 63 0.0       99.70     LegendNANA

Notes on Data Quality.

Legend

  • E = Estimated
  • M = Missing
  • NA = Not Available*
  • [empty] = Indicates an unobserved value
Date modified: